Powrót do katalogu

COSMOS 2251 DEB

AktywnyVLEO
NORAD 34006·DEBRIS·🇷🇺 Russia

Wystrzelony Jun 16, 1993 z Plesetsk Cosmodrome

Loading…

Następne Przeloty (najbliższe 24 godziny)

TLE

Starzejące sięSource: Space-Track

Epoka: Sep 13, 2026, 13:21 UTC

1 34006U 93036GR  26256.55671111  .00048539  00000-0  20564-2 0  9990
2 34006  74.0541 297.9007 0005177 307.4941 174.9062 15.22907462928127

Śledź COSMOS 2251 DEB w czasie rzeczywistym z AllMySat

Download on the App Store